TimeEST,TemperatureF,Dew PointF,Humidity,Sea Level PressureIn,VisibilityMPH,Wind Direction,Wind SpeedMPH,Gust SpeedMPH,PrecipitationIn,Events,Conditions,WindDirDegrees,DateUTC
12:54 AM,60.1,46.0,60,30.23,10.0,West,5.8,-,N/A,,Scattered Clouds,260,2012-12-03 05:54:00
1:54 AM,60.1,46.0,60,30.24,10.0,West,8.1,-,N/A,,Overcast,270,2012-12-03 06:54:00
2:54 AM,60.1,46.9,62,30.24,10.0,NNW,3.5,-,N/A,,Overcast,330,2012-12-03 07:54:00
3:54 AM,57.9,46.9,67,30.24,10.0,West,8.1,-,N/A,,Mostly Cloudy,260,2012-12-03 08:54:00
4:54 AM,59.0,46.9,64,30.24,10.0,West,9.2,-,N/A,,Scattered Clouds,270,2012-12-03 09:54:00
5:54 AM,59.0,46.9,64,30.24,10.0,West,10.4,-,N/A,,Clear,270,2012-12-03 10:54:00
6:54 AM,55.0,46.9,74,30.26,10.0,NW,3.5,-,N/A,,Scattered Clouds,320,2012-12-03 11:54:00
7:54 AM,57.0,48.0,72,30.27,10.0,NW,6.9,-,N/A,,Partly Cloudy,310,2012-12-03 12:54:00
8:54 AM,61.0,48.9,64,30.28,10.0,NE,4.6,-,N/A,,Scattered Clouds,40,2012-12-03 13:54:00
9:54 AM,64.9,48.9,56,30.28,10.0,WSW,8.1,-,N/A,,Partly Cloudy,250,2012-12-03 14:54:00
10:54 AM,66.0,48.9,54,30.28,10.0,West,9.2,-,N/A,,Scattered Clouds,260,2012-12-03 15:54:00
11:54 AM,66.9,50.0,54,30.26,10.0,WSW,11.5,-,N/A,,Mostly Cloudy,250,2012-12-03 16:54:00
12:54 PM,69.1,50.0,51,30.23,10.0,SW,8.1,-,N/A,,Mostly Cloudy,230,2012-12-03 17:54:00
1:54 PM,71.1,51.1,49,30.22,10.0,WSW,6.9,-,N/A,,Overcast,240,2012-12-03 18:54:00
2:54 PM,72.0,51.1,48,30.21,10.0,Calm,Calm,-,N/A,,Mostly Cloudy,0,2012-12-03 19:54:00
3:54 PM,69.1,51.1,53,30.21,10.0,ESE,11.5,-,N/A,,Mostly Cloudy,120,2012-12-03 20:54:00
4:54 PM,66.0,51.1,59,30.23,10.0,ESE,6.9,-,N/A,,Mostly Cloudy,120,2012-12-03 21:54:00
5:54 PM,64.0,51.1,63,30.24,10.0,SE,5.8,-,N/A,,Mostly Cloudy,130,2012-12-03 22:54:00
6:54 PM,62.1,51.1,67,30.25,10.0,Calm,Calm,-,N/A,,Scattered Clouds,0,2012-12-03 23:54:00
7:54 PM,62.1,51.1,67,30.26,10.0,Calm,Calm,-,N/A,,Scattered Clouds,0,2012-12-04 00:54:00
8:54 PM,57.9,50.0,75,30.26,10.0,Calm,Calm,-,N/A,,Clear,0,2012-12-04 01:54:00
9:54 PM,54.0,48.0,80,30.26,10.0,Calm,Calm,-,N/A,,Clear,0,2012-12-04 02:54:00
10:54 PM,55.0,48.9,80,30.26,10.0,Calm,Calm,-,N/A,,Partly Cloudy,0,2012-12-04 03:54:00
11:54 PM,52.0,48.0,86,30.26,10.0,Calm,Calm,-,N/A,,Clear,0,2012-12-04 04:54:00